Location: Oshawa
(43.9000°N, 78.8670°W)
Time: 08:09:20
(UTC-04:00)

SPOT 5 - Visible Passes

Search period start: 01 September 2015 00:00
Search period end: 11 September 2015 00:00
Orbit: 821 x 823 km, 98.5° (Epoch: 01 September)

Date Brightness Start Highest point End Pass type
(mag) Time Alt. Az. Time Alt. Az. Time Alt. Az.
01 Sep 4.4 20:34:34 10° ESE 20:38:39 23° ENE 20:42:52 10° NNE visible
01 Sep 3.8 22:15:58 29° SSW 22:18:31 52° W 22:23:45 10° NNW visible
02 Sep 4.8 20:15:36 10° E 20:18:45 16° ENE 20:22:05 10° NNE visible
02 Sep 3.2 21:55:44 32° S 21:58:20 78° WSW 22:03:44 10° NNW visible
03 Sep 3.1 21:35:29 29° SSE 21:38:13 72° ENE 21:43:36 10° N visible
03 Sep 5.4 23:16:54 13° WSW 23:19:03 16° W 23:22:04 10° NW visible
04 Sep 3.4 21:15:14 24° SE 21:18:10 49° ENE 21:23:20 10° N visible
04 Sep 5.0 22:56:39 19° WSW 22:58:38 23° W 23:02:49 10° NW visible
05 Sep 3.9 20:55:00 18° ESE 20:58:09 33° ENE 21:02:57 10° N visible
05 Sep 4.4 22:36:24 27° SW 22:38:19 35° W 22:43:10 10° NNW visible
06 Sep 4.4 20:34:45 13° ESE 20:38:12 23° ENE 20:42:25 10° NNE visible
06 Sep 3.7 22:16:10 35° SSW 22:18:04 52° W 22:23:18 10° NNW visible
07 Sep 4.8 20:15:09 10° E 20:18:18 16° ENE 20:21:38 10° NNE visible
07 Sep 3.2 21:55:55 41° S 21:57:53 78° WSW 22:03:17 10° NNW visible
08 Sep 3.1 21:35:41 38° SSE 21:37:46 72° ENE 21:43:09 10° N visible
08 Sep 5.4 23:17:05 14° WSW 23:18:35 16° W 23:21:37 10° NW visible
09 Sep 3.4 21:15:26 30° SE 21:17:43 49° ENE 21:22:53 10° N visible
09 Sep 4.9 22:56:50 21° WSW 22:58:11 23° W 23:02:22 10° NW visible
10 Sep 3.9 20:55:12 22° ESE 20:57:42 33° ENE 21:02:30 10° N visible
10 Sep 4.4 22:36:36 31° WSW 22:37:51 35° W 22:42:43 10° NNW visible
